Date,TemperatureHighF,TemperatureAvgF,TemperatureLowF,DewpointHighF,DewpointAvgF,DewpointLowF,HumidityHigh,HumidityAvg,HumidityLow,PressureMaxIn,PressureMinIn,WindSpeedMaxMPH,WindSpeedAvgMPH,GustSpeedMaxMPH,PrecipitationSumIn
2013-2-1,29.7,25.3,17.2,16.6,11.7,6.9,78,56,43,30.14,29.69,34,4,34,0.00
2013-2-2,26.9,22.0,14.2,19.3,11.1,6.9,90,63,51,30.26,30.05,23,3,23,0.00
2013-2-3,30.2,22.7,16.8,20.8,17.2,13.9,97,80,59,30.05,29.74,11,0,11,0.00
2013-2-4,28.6,23.4,18.8,18.3,11.2,5.5,87,61,40,29.96,29.75,30,2,30,0.00
2013-2-5,25.3,23.4,21.6,23.3,18.9,7.5,97,84,54,29.98,29.90,7,0,7,0.00
2013-2-6,36.5,29.0,23.9,28.8,21.3,2.5,100,75,38,30.32,29.89,23,1,23,0.03
2013-2-7,30.5,24.2,19.3,16.4,8.2,1.8,70,51,37,30.50,30.31,16,1,16,0.00
2013-2-8,30.5,27.4,21.3,30.5,25.6,15.1,100,94,65,30.38,29.50,43,4,43,0.00
2013-2-9,25.4,20.5,16.1,23.2,15.7,2.4,100,83,53,30.24,29.59,49,6,49,0.03
2013-2-10,35.7,22.6,11.2,20.5,7.7,-1.9,78,54,25,30.43,30.23,19,1,19,0.08
2013-2-11,43.7,36.5,26.6,43.3,35.5,20.2,100,96,77,30.34,29.65,20,2,20,0.97
2013-2-12,42.9,37.1,29.5,39.2,31.5,23.9,100,81,60,29.93,29.67,27,3,27,0.00
2013-2-13,41.2,32.8,27.1,27.7,24.9,22.0,83,73,54,29.92,29.66,17,1,17,0.00
2013-2-14,40.7,33.0,25.5,32.7,27.4,24.2,100,82,53,30.00,29.70,17,1,17,0.05
2013-2-15,44.6,37.2,31.3,38.1,35.3,31.3,100,93,77,30.03,29.91,23,3,23,0.00
2013-2-16,37.2,32.3,25.8,37.2,27.8,20.6,100,85,62,29.93,29.67,27,4,27,0.01
2013-2-17,27.0,22.1,14.3,24.3,7.6,0.3,94,54,35,29.81,29.51,46,7,46,0.01
2013-2-18,31.2,21.8,13.4,10.6,5.1,1.3,62,49,34,30.20,29.81,36,4,36,0.00
2013-2-19,43.0,35.7,25.5,42.6,31.2,9.9,100,84,49,30.20,29.62,24,3,24,0.29
2013-2-20,37.3,29.3,21.7,37.3,19.1,9.8,100,66,50,29.89,29.62,30,4,30,0.25
2013-2-21,31.8,23.9,19.3,17.5,13.7,11.4,74,65,54,30.23,29.86,32,3,32,0.25
2013-2-22,37.1,29.0,20.7,28.2,22.1,14.1,87,75,58,30.37,30.22,28,1,28,0.25
2013-2-23,35.6,33.4,31.3,35.6,32.6,27.6,100,97,85,30.29,29.81,25,3,25,0.28
2013-2-24,37.2,34.1,29.7,37.0,33.6,29.4,100,98,86,29.90,29.69,25,4,25,0.25
2013-2-25,43.1,34.8,27.1,31.5,28.9,25.4,99,80,61,30.24,29.90,20,1,20,0.25
2013-2-26,39.3,34.6,31.0,33.1,30.7,28.0,100,86,65,30.31,30.02,20,1,20,0.25
2013-2-27,41.9,38.5,32.3,41.9,38.5,32.3,100,100,100,30.02,29.54,45,4,45,1.86
2013-2-28,46.1,37.9,32.7,43.1,37.3,32.6,100,98,84,29.63,29.53,13,0,13,0.25